Regional Weather Roundup
Issued by NWS

Home | Current Version | Previous Version | Text Only | Print | Product List | Glossary Off
Versions: 1 2 3 4 5 6 7 8 9 10 11 12 13 14 15 16 17 18 19 20 21 22 23 24 25 26 27 28 29 30 31 32 33 34 35 36 37 38 39 40 41 42 43 44 45 46 47 48 49 50

000
ASUS43 KBIS 211302
RWRND

NORTH DAKOTA REGIONAL WEATHER ROUNDUP
NATIONAL WEATHER SERVICE BISMARCK ND
700 AM CST TUE FEB 21 2017

NOTE: "FAIR" INDICATES FEW OR NO CLOUDS BELOW 12,000 FEET WITH NO
SIGNIFICANT WEATHER AND/OR OBSTRUCTIONS TO VISIBILITY.


NDZ001>003-009>011-017-211400-
NORTHWEST NORTH DAKOTA

CITY           SKY/WX    TMP DP  RH WIND       PRES   REMARKS
WILLISTON      FAIR      30  27  88 SW10      29.67R
MINOT          FAIR      30  26  85 NW5       29.63S
MINOT AFB      CLEAR     30  27  89 N6        29.63S
$$

NDZ018>021-031>035-040>046-211400-
SOUTHWEST NORTH DAKOTA

CITY           SKY/WX    TMP DP  RH WIND       PRES   REMARKS
BISMARCK       FAIR      32  28  85 SW6       29.68R
DICKINSON      FAIR      36  28  73 W10       29.68R
GARRISON         N/A     28  25  88 W7        29.65R
HETTINGER ARPT CLOUDY    37  30  75 CALM      29.73R
$$

NDZ004>008-012>016-024-026-027-054-211400-
NORTHEAST NORTH DAKOTA

CITY           SKY/WX    TMP DP  RH WIND       PRES   REMARKS
GRAND FORKS    PTCLDY    31  26  82 E6        29.71F
GRND FRKS AFB  CLEAR     29  29  99 SE6       29.71F
DEVILS LAKE    FAIR      29  27  92 SE8       29.67F
$$

NDZ022-023-025-028>030-036>039-047>053-211400-
SOUTHEAST NORTH DAKOTA

CITY           SKY/WX    TMP DP  RH WIND       PRES   REMARKS
FARGO          CLEAR     34  31  88 SE10      29.71F
JAMESTOWN      FAIR      35  33  92 S14       29.65S
$$




USA.gov is the U.S. government's official web portal to all federal, state and local government web resources and services.